When you browse on this site, cookies collect data to enhance your experience and personalize the content and advertising you see.
Visit our Privacy Policy to learn more. By continuing to use the site, you agree to this use of cookies and data.
  • In Switzerland
  • List of Countries
  • For 7 days
  • Water Temperature
  • Satellite Maps
  • Weather Map
  • Weather Widgets
  • user-avatar
    Login

    Hourly Weather Plavynyshche

    Today, 19 February, Tuesday

    Time Temperature Precipitation Wind Pressure Humidity
    00:00 -6°C° 0 mm 1 mps 756 mmHg 93%
    01:00 -6°C° 0 mm 1 mps 756 mmHg 93%
    02:00 -8°C° 0 mm 1 mps 756 mmHg 93%
    03:00 -8°C° 0 mm 1 mps 756 mmHg 93%
    04:00 -8°C° 0 mm 1 mps 756 mmHg 93%
    05:00 -8°C° 0 mm 1 mps 756 mmHg 93%
    06:00 -8°C° 0 mm 1 mps 756 mmHg 93%
    07:00 -8°C° 0 mm 1 mps 757 mmHg 92%
    08:00 -7°C° 0 mm 1 mps 757 mmHg 92%
    09:00 -7°C° 0 mm 2 mps 757 mmHg 92%
    10:00 -5°C° 0 mm 2 mps 756 mmHg 91%
    11:00 -5°C° 0 mm 3 mps 756 mmHg 91%
    12:00 -4°C° 0 mm 3 mps 756 mmHg 91%
    13:00 -2°C° 0 mm 3 mps 756 mmHg 90%
    14:00 -3°C° 0 mm 4 mps 755 mmHg 90%
    15:00 -4°C° 0 mm 4 mps 755 mmHg 91%
    16:00 -5°C° 0 mm 4 mps 754 mmHg 91%
    17:00 -5°C° 0 mm 4 mps 754 mmHg 92%
    18:00 -7°C° 0 mm 4 mps 753 mmHg 91%
    19:00 -7°C° 0 mm 4 mps 753 mmHg 90%
    20:00 -7°C° 0 mm 5 mps 753 mmHg 89%
    21:00 -7°C° 0 mm 5 mps 752 mmHg 87%
    22:00 -7°C° 0 mm 5 mps 752 mmHg 85%
    23:00 -6°C° 0 mm 5 mps 751 mmHg 83%

    Tomorrow, 20 February, Wednesday

    Time Temperature Precipitation Wind Pressure Humidity
    00:00 -6°C° 0 mm 6 mps 751 mmHg 83%
    01:00 -6°C° 0 mm 6 mps 750 mmHg 83%
    02:00 -6°C° 0 mm 6 mps 750 mmHg 83%
    03:00 -6°C° 0 mm 6 mps 749 mmHg 85%
    04:00 -6°C° 0 mm 6 mps 748 mmHg 87%
    05:00 -6°C° 0 mm 6 mps 748 mmHg 89%
    06:00 -5°C° 0 mm 6 mps 747 mmHg 91%
    07:00 -4°C° 0 mm 6 mps 747 mmHg 93%
    08:00 -3°C° 0 mm 7 mps 747 mmHg 94%
    09:00 -2°C° 0 mm 6 mps 747 mmHg 96%
    10:00 -2°C° 0 mm 6 mps 746 mmHg 98%
    11:00 -1°C° 0 mm 5 mps 746 mmHg 100%
    12:00 -1°C° 0.2 mm 5 mps 746 mmHg 100%
    13:00 -1°C° 0.2 mm 5 mps 746 mmHg 100%
    14:00 -1°C° 0.2 mm 4 mps 746 mmHg 99%
    15:00 -1°C° 0.3 mm 4 mps 746 mmHg 99%
    16:00 -1°C° 0.3 mm 4 mps 746 mmHg 99%
    17:00 -1°C° 0.3 mm 4 mps 746 mmHg 98%
    18:00 -1°C° 0 mm 4 mps 746 mmHg 98%
    19:00 0°C° 0 mm 3 mps 746 mmHg 98%
    20:00 0°C° 0 mm 3 mps 746 mmHg 98%
    21:00 0°C° 0 mm 3 mps 746 mmHg 97%
    22:00 -1°C° 0 mm 4 mps 746 mmHg 96%
    23:00 -1°C° 0 mm 4 mps 745 mmHg 94%

    Day after tomorrow, 21 February, Thursday

    Time Temperature Precipitation Wind Pressure Humidity
    00:00 -1°C° 0 mm 5 mps 745 mmHg 93%
    01:00 -1°C° 0 mm 5 mps 745 mmHg 92%
    02:00 -2°C° 0 mm 6 mps 745 mmHg 91%
    03:00 -2°C° 0.1 mm 6 mps 745 mmHg 90%
    04:00 -2°C° 0.1 mm 6 mps 744 mmHg 90%
    05:00 -2°C° 0.1 mm 7 mps 744 mmHg 90%
    06:00 -3°C° 0 mm 6 mps 744 mmHg 87%
    07:00 -4°C° 0 mm 6 mps 745 mmHg 85%
    08:00 -5°C° 0 mm 6 mps 745 mmHg 82%
    09:00 -5°C° 0.1 mm 6 mps 745 mmHg 81%
    10:00 -6°C° 0.1 mm 7 mps 745 mmHg 80%
    11:00 -6°C° 0.1 mm 7 mps 746 mmHg 79%
    12:00 -6°C° 0.1 mm 7 mps 746 mmHg 78%
    13:00 -6°C° 0.1 mm 7 mps 746 mmHg 78%
    14:00 -6°C° 0.1 mm 7 mps 746 mmHg 78%
    15:00 -7°C° 0.1 mm 7 mps 746 mmHg 79%
    16:00 -6°C° 0.1 mm 6 mps 747 mmHg 80%
    17:00 -7°C° 0.1 mm 5 mps 747 mmHg 82%
    18:00 -7°C° 0 mm 5 mps 747 mmHg 82%
    19:00 -8°C° 0 mm 5 mps 748 mmHg 83%
    20:00 -10°C° 0 mm 5 mps 748 mmHg 84%
    21:00 -10°C° 0 mm 5 mps 748 mmHg 85%
    22:00 -11°C° 0 mm 5 mps 748 mmHg 86%
    23:00 -11°C° 0 mm 5 mps 748 mmHg 86%

    22 February, Friday

    Time Temperature Precipitation Wind Pressure Humidity
    00:00 -10°C° 0 mm 4 mps 748 mmHg 87%
    01:00 -10°C° 0 mm 4 mps 749 mmHg 88%
    02:00 -10°C° 0 mm 4 mps 749 mmHg 89%
    03:00 -10°C° 0 mm 4 mps 749 mmHg 90%
    04:00 -11°C° 0 mm 4 mps 749 mmHg 90%
    05:00 -11°C° 0 mm 4 mps 749 mmHg 90%
    06:00 -12°C° 0 mm 5 mps 750 mmHg 90%
    07:00 -13°C° 0 mm 5 mps 750 mmHg 89%
    08:00 -14°C° 0 mm 6 mps 751 mmHg 88%
    09:00 -14°C° 0 mm 6 mps 751 mmHg 85%
    10:00 -12°C° 0 mm 6 mps 752 mmHg 82%
    11:00 -12°C° 0 mm 6 mps 752 mmHg 79%
    12:00 -12°C° 0 mm 6 mps 752 mmHg 79%
    13:00 -12°C° 0 mm 6 mps 753 mmHg 78%
    14:00 -12°C° 0 mm 6 mps 753 mmHg 77%
    15:00 -12°C° 0 mm 6 mps 753 mmHg 78%
    16:00 -13°C° 0 mm 5 mps 754 mmHg 80%
    17:00 -13°C° 0 mm 5 mps 754 mmHg 81%
    18:00 -14°C° 0 mm 4 mps 755 mmHg 82%
    19:00 -14°C° 0 mm 4 mps 755 mmHg 84%
    20:00 -15°C° 0 mm 4 mps 755 mmHg 85%
    21:00 -15°C° 0 mm 4 mps 755 mmHg 87%
    22:00 -15°C° 0 mm 4 mps 756 mmHg 88%
    23:00 -15°C° 0 mm 4 mps 756 mmHg 89%

    23 February, Saturday

    Time Temperature Precipitation Wind Pressure Humidity
    00:00 -15°C° 0 mm 4 mps 756 mmHg 90%
    01:00 -15°C° 0 mm 4 mps 756 mmHg 91%
    02:00 -15°C° 0 mm 4 mps 756 mmHg 92%
    03:00 -16°C° 0 mm 4 mps 756 mmHg 91%
    04:00 -16°C° 0 mm 4 mps 757 mmHg 91%
    05:00 -17°C° 0 mm 4 mps 757 mmHg 90%
    06:00 -16°C° 0 mm 4 mps 757 mmHg 90%
    07:00 -16°C° 0 mm 4 mps 758 mmHg 90%
    08:00 -17°C° 0 mm 5 mps 758 mmHg 90%
    09:00 -15°C° 0 mm 5 mps 758 mmHg 88%
    10:00 -14°C° 0 mm 5 mps 758 mmHg 86%
    11:00 -13°C° 0 mm 5 mps 759 mmHg 84%
    12:00 -13°C° 0.1 mm 5 mps 759 mmHg 83%
    13:00 -12°C° 0.1 mm 5 mps 759 mmHg 82%
    14:00 -12°C° 0.1 mm 5 mps 759 mmHg 81%
    15:00 -11°C° 0 mm 4 mps 759 mmHg 83%
    16:00 -11°C° 0 mm 4 mps 759 mmHg 86%
    17:00 -12°C° 0 mm 3 mps 759 mmHg 88%
    18:00 -12°C° 0 mm 3 mps 759 mmHg 90%
    19:00 -13°C° 0 mm 3 mps 759 mmHg 91%
    20:00 -13°C° 0 mm 3 mps 760 mmHg 93%
    21:00 -13°C° 0 mm 3 mps 760 mmHg 93%
    22:00 -13°C° 0 mm 2 mps 760 mmHg 94%
    23:00 -13°C° 0 mm 2 mps 760 mmHg 94%

    24 February, Sunday

    Time Temperature Precipitation Wind Pressure Humidity
    00:00 -14°C° 0 mm 2 mps 760 mmHg 94%
    01:00 -15°C° 0 mm 2 mps 760 mmHg 95%
    02:00 -15°C° 0 mm 2 mps 760 mmHg 95%
    03:00 -16°C° 0 mm 2 mps 761 mmHg 95%
    04:00 -16°C° 0 mm 2 mps 761 mmHg 95%
    05:00 -17°C° 0 mm 3 mps 761 mmHg 95%
    06:00 -16°C° 0 mm 3 mps 761 mmHg 95%
    07:00 -16°C° 0 mm 3 mps 761 mmHg 95%
    08:00 -15°C° 0 mm 3 mps 762 mmHg 94%
    09:00 -14°C° 0 mm 3 mps 762 mmHg 92%
    10:00 -14°C° 0 mm 4 mps 762 mmHg 90%
    11:00 -12°C° 0 mm 4 mps 762 mmHg 89%
    12:00 -12°C° 0 mm 4 mps 762 mmHg 88%
    13:00 -12°C° 0 mm 4 mps 762 mmHg 88%
    14:00 -11°C° 0 mm 4 mps 762 mmHg 87%
    15:00 -12°C° 0 mm 4 mps 762 mmHg 88%
    16:00 -12°C° 0 mm 4 mps 762 mmHg 89%
    17:00 -13°C° 0 mm 3 mps 762 mmHg 90%
    18:00 -14°C° 0 mm 3 mps 762 mmHg 91%
    19:00 -15°C° 0 mm 3 mps 763 mmHg 92%
    20:00 -15°C° 0 mm 2 mps 763 mmHg 93%
    21:00 -15°C° 0 mm 2 mps 763 mmHg 93%
    22:00 -16°C° 0 mm 2 mps 763 mmHg 92%
    23:00 -16°C° 0 mm 2 mps 763 mmHg 92%
    Show more